Wind_Speed
22 19 19 22 18 10 14 16 14 7 13 22 6 1 3 4 5 13 13 9 8 14 14 14 12 13 12 12 10 11 10 8 7 9 8 8 6 2 4 4 2 6 4 5
21 19 23 23 18 12 8 11 10 12 17 21 21 3 2 4 11 12 13 9 10 9 11 13 11 10 9 9 9 6 7 6 7 8 8 6 3 2 3 1 2 3 4 7
19 24 27 26 18 14 13 12 11 13 18 20 20 23 13 6 16 10 11 7 9 11 10 10 11 9 9 7 8 8 8 6 5 7 7 6 3 3 1 3 2 4 6 8
18 10 27 22 17 8 10 11 10 15 15 16 18 18 24 17 11 4 8 11 11 12 11 9 13 14 12 10 8 8 8 7 6 7 6 3 2 2 1 1 3 3 5 9
26 23 20 23 14 11 1 6 6 11 15 20 15 20 19 21 21 24 8 10 10 13 14 12 13 13 12 11 9 8 7 6 6 7 5 3 1 2 3 3 4 4 7 11
21 13 7 18 14 13 11 10 3 9 16 19 13 13 20 20 17 16 14 15 16 12 12 14 14 14 13 11 8 8 7 7 7 7 6 5 4 4 5 5 5 4 8 10
16 11 8 7 9 19 10 10 9 6 11 12 16 11 7 13 18 20 19 16 18 16 11 13 15 13 12 12 10 8 9 8 8 7 5 6 3 4 5 5 5 5 7 8
11 6 7 6 5 12 17 13 7 1 6 9 18 6 10 18 13 14 25 10 7 10 9 10 15 13 10 9 9 9 9 9 8 7 6 6 6 4 5 6 8 8 7 9
11 12 5 11 1 6 14 15 5 3 9 11 10 12 21 16 17 5 2 12 7 5 8 12 12 14 10 8 7 7 7 7 7 7 8 9 9 7 8 9 10 11 11 11
11 7 9 13 10 5 13 15 4 4 11 9 7 21 16 20 18 27 16 9 12 12 10 10 10 13 6 8 7 6 7 8 8 10 9 11 12 12 10 10 12 12 13 13
11 9 9 13 12 16 13 12 5 5 11 2 10 16 15 15 17 13 16 11 12 14 11 5 7 14 6 6 7 7 9 10 11 12 12 12 14 13 13 13 14 14 14 14
16 12 6 9 11 15 12 11 4 4 8 7 11 14 12 11 12 18 4 6 11 6 3 3 6 2 7 6 6 7 9 10 11 12 12 13 13 14 14 14 14 15 15 14
21 15 14 11 9 10 16 9 6 9 7 9 15 17 14 13 12 12 10 6 7 5 10 8 8 8 6 1 3 5 8 7 6 11 11 11 13 16 16 15 15 17 18 16
14 28 25 22 16 17 17 18 14 10 12 15 17 17 16 11 19 11 7 13 9 7 17 15 14 12 13 11 11 11 11 13 12 8 12 16 17 18 18 19 20 20 18 21
19 26 23 14 19 21 18 22 22 19 13 10 15 20 22 22 17 14 23 32 21 24 26 21 17 17 16 20 18 19 16 16 15 13 14 14 18 22 24 24 24 22 23 24
23 31 27 24 13 13 18 17 23 20 22 23 19 19 20 25 22 15 14 12 14 20 27 23 20 21 22 25 26 26 22 25 23 17 18 21 16 17 19 22 26 28 29 25
21 33 29 27 19 14 12 15 20 27 25 24 19 23 27 27 26 27 26 25 19 17 20 25 21 21 25 26 30 28 38 22 20 23 26 33 17 19 22 20 24 26 32 35
22 33 34 30 25 19 18 16 19 20 24 27 28 25 25 26 29 30 28 19 17 18 19 22 25 25 26 27 29 30 24 19 27 36 39 26 24 18 20 26 28 27 24 28
16 21 34 37 34 27 27 25 28 27 25 24 22 24 24 26 26 26 23 20 20 21 23 23 23 24 28 30 30 27 31 34 36 37 37 36 33 24 22 23 26 22 20 24
15 17 18 19 23 28 29 30 26 28 29 30 28 26 27 26 23 19 18 19 21 22 22 23 26 27 27 28 31 33 31 33 34 36 35 33 30 25 22 21 22 27 27 28
12 13 15 18 20 21 21 26 29 27 23 23 24 25 27 24 23 24 24 25 24 23 23 22 24 26 29 29 29 30 31 32 32 33 32 30 30 29 26 24 25 28 31 29
9 12 12 11 13 13 10 12 17 17 18 19 22 23 24 25 25 26 27 25 22 21 21 22 22 23 25 27 28 30 31 31 32 33 34 34 33 33 32 31 30 34 33 34
9 10 9 8 9 8 5 8 12 14 15 17 20 23 25 27 26 29 28 25 24 25 25 26 20 18 17 16 17 19 21 22 23 26 29 32 34 36 35 34 33 35 33 31
6 8 8 10 10 8 8 10 12 14 16 17 19 22 23 24 25 24 22 21 22 24 19 17 18 15 14 16 20 22 20 20 20 24 27 27 28 32 32 34 32 31 32 30
10 11 13 16 12 10 9 11 15 16 16 18 20 21 22 22 21 20 22 22 22 18 16 20 16 11 14 20 20 19 16 15 18 19 19 18 20 23 26 26 27 27 28 27
16 13 14 13 14 12 13 14 18 19 19 19 21 21 21 21 16 17 18 17 16 13 13 14 12 15 17 18 20 22 20 14 12 13 17 19 18 19 21 22 22 23 23 21
Wind_Direction
152 132 124 117 100 69 355 22 48 64 53 16 291 178 99 124 194 145 144 154 145 124 122 128 135 137 149 155 158 160 160 150 146 142 144 133 135 83 22 358 17 10 39 73
150 137 138 129 110 59 22 14 47 8 16 1 41 314 235 174 169 147 133 147 157 149 128 129 139 138 145 149 162 171 176 164 159 155 145 137 127 67 21 350 29 8 83 89
149 143 153 135 113 96 44 9 358 355 335 331 350 8 0 293 185 171 136 136 165 156 149 145 147 146 152 157 171 184 196 194 184 175 173 172 163 75 324 347 22 52 87 89
157 147 169 151 132 132 55 348 326 321 333 351 346 335 354 356 8 91 146 149 165 159 148 171 171 164 159 159 181 185 196 211 214 200 199 210 226 83 154 145 116 127 111 95
175 168 169 172 159 167 102 258 8 2 340 341 328 323 343 329 327 332 269 168 166 166 152 165 189 182 165 172 182 190 209 220 237 217 201 217 250 219 208 175 128 111 100 107
192 198 167 175 178 150 151 118 154 348 349 355 339 317 314 338 328 306 275 241 178 154 157 169 176 194 173 168 187 192 197 217 209 205 207 217 226 235 209 184 149 124 108 122
186 129 111 62 185 150 155 171 119 27 9 6 344 336 322 312 300 286 255 257 198 164 155 171 164 184 170 169 180 195 195 205 217 218 233 230 243 249 224 192 162 139 120 132
132 156 207 93 356 216 211 189 168 352 31 27 356 306 335 325 286 246 254 290 201 131 144 173 154 163 165 165 167 181 195 197 205 231 239 249 250 243 225 216 171 171 163 170
116 96 129 50 84 163 198 195 206 329 14 9 8 336 346 338 326 279 116 236 108 182 166 161 148 132 150 168 176 188 200 208 229 241 257 271 268 249 228 219 200 187 183 186
134 119 111 70 25 80 185 189 212 330 336 359 335 316 333 324 345 134 115 151 161 129 130 142 145 110 127 162 183 197 220 223 233 246 252 264 262 253 233 224 218 209 195 194
168 177 124 109 96 112 132 190 177 319 341 303 309 317 326 333 333 41 118 105 138 159 163 191 154 129 151 167 181 202 226 237 246 255 261 261 260 240 227 220 225 225 207 206
202 184 198 148 141 149 147 161 197 294 298 282 293 309 320 322 343 337 353 81 84 107 85 223 213 136 155 178 198 213 236 242 253 253 265 269 262 250 233 220 223 223 219 213
211 194 208 201 201 208 207 189 230 256 300 284 292 307 321 315 19 10 43 43 26 3 322 303 292 272 252 129 292 294 289 290 269 264 255 259 269 272 265 249 238 232 222 227
200 211 229 216 192 204 248 207 214 248 286 289 288 300 302 336 357 15 34 355 354 333 301 308 286 272 282 275 273 273 272 282 274 262 277 260 251 254 254 258 261 254 251 258
197 203 215 219 212 203 233 208 222 245 255 317 290 283 290 301 308 303 305 312 318 315 317 303 286 276 262 260 253 253 247 249 254 261 260 270 292 284 272 268 264 262 266 268
206 200 209 224 211 207 213 211 223 240 256 260 279 291 285 299 313 319 313 301 297 284 296 297 289 278 277 280 277 265 258 260 266 259 256 265 268 272 279 284 281 275 266 259
210 211 213 225 221 197 206 224 233 232 253 262 276 274 296 306 312 315 310 304 293 274 277 284 288 277 274 275 279 260 224 246 264 278 238 251 305 289 285 280 296 282 280 275
205 212 221 226 237 230 226 234 253 259 264 270 280 291 301 303 304 311 312 302 290 283 276 273 281 283 276 271 269 281 283 292 273 273 283 300 299 292 274 283 273 261 266 279
212 220 225 231 236 245 248 247 262 271 277 290 297 297 301 305 304 305 306 299 292 288 286 281 274 269 275 279 280 276 275 273 272 277 285 287 287 284 278 282 250 249 270 285
228 223 228 236 230 235 243 250 257 254 263 278 290 299 303 303 305 306 302 301 301 293 280 277 279 281 278 274 274 276 273 273 273 273 274 277 281 285 286 276 254 257 258 264
227 224 218 222 232 237 239 243 258 268 278 286 294 300 303 309 309 309 308 308 305 297 290 282 274 274 276 276 276 277 279 278 278 280 280 280 279 277 272 264 255 251 255 258
224 232 230 235 242 245 254 243 246 263 271 277 281 289 296 297 301 304 305 308 302 299 294 284 281 276 270 272 276 277 277 277 278 278 277 275 273 271 270 268 263 257 255 258
244 252 251 244 255 257 217 202 228 249 265 279 286 290 296 301 305 307 307 306 309 304 301 307 309 305 299 288 283 282 279 273 272 271 269 267 264 260 260 262 266 268 268 265
227 236 245 256 269 272 251 249 256 260 265 273 284 292 298 302 305 302 297 304 306 308 310 314 315 305 307 314 314 307 294 282 279 276 270 265 261 258 254 257 259 266 274 273
233 242 261 273 273 277 274 273 271 277 285 288 293 300 304 306 302 298 310 313 309 307 310 313 315 320 332 338 343 334 312 300 279 281 274 266 259 259 253 254 260 264 274 274
257 255 254 263 279 277 274 270 275 281 280 283 289 298 301 304 297 305 306 309 310 322 315 321 325 329 337 341 339 345 334 314 300 290 286 281 258 256 257 260 265 265 271 295
Height
5931 5934 5935 5937 5936 5938 5938 5934 5931 5932 5933 5937 5934 5933 5932 5933 5934 5928 5929 5933 5933 5931 5933 5937 5939 5942 5944 5945 5945 5946 5947 5947 5948 5949 5951 5951 5952 5952 5953 5952 5952 5951 5949 5949
5932 5933 5937 5938 5936 5937 5936 5937 5935 5936 5934 5938 5936 5933 5935 5934 5934 5932 5928 5931 5933 5932 5934 5936 5938 5940 5943 5945 5946 5947 5948 5948 5949 5950 5951 5952 5952 5952 5953 5953 5951 5951 5951 5951
5932 5935 5936 5935 5936 5937 5937 5936 5936 5936 5936 5938 5936 5939 5936 5935 5931 5931 5927 5932 5933 5931 5933 5937 5937 5939 5941 5943 5946 5947 5948 5949 5950 5951 5951 5953 5953 5952 5952 5952 5950 5949 5951 5951
5931 5933 5936 5935 5933 5935 5935 5935 5936 5936 5939 5940 5937 5936 5933 5931 5931 5927 5928 5928 5931 5930 5931 5937 5938 5937 5940 5942 5945 5946 5947 5949 5951 5951 5951 5952 5953 5952 5953 5951 5950 5950 5950 5950
5926 5927 5929 5932 5934 5934 5937 5937 5938 5937 5938 5937 5935 5934 5930 5930 5929 5928 5925 5927 5933 5930 5929 5934 5939 5936 5938 5941 5943 5946 5947 5948 5949 5950 5951 5952 5952 5953 5952 5951 5950 5950 5949 5950
5926 5929 5930 5931 5935 5933 5937 5940 5942 5939 5937 5935 5934 5935 5934 5929 5924 5922 5920 5921 5930 5931 5930 5933 5937 5937 5937 5939 5942 5944 5945 5947 5948 5949 5950 5950 5951 5952 5951 5950 5950 5950 5949 5951
5925 5926 5928 5929 5934 5934 5937 5939 5939 5939 5937 5936 5934 5935 5936 5932 5923 5916 5919 5918 5916 5926 5930 5933 5936 5936 5938 5938 5941 5942 5944 5945 5947 5947 5948 5949 5949 5948 5948 5948 5948 5949 5950 5951
5925 5927 5925 5927 5929 5931 5934 5938 5936 5935 5936 5937 5934 5932 5933 5931 5923 5917 5919 5922 5921 5926 5933 5937 5936 5937 5937 5939 5941 5942 5943 5944 5945 5946 5946 5947 5947 5947 5946 5946 5946 5948 5949 5950
5922 5925 5926 5926 5927 5930 5933 5935 5936 5936 5936 5936 5933 5931 5934 5929 5920 5919 5919 5929 5923 5930 5935 5939 5939 5935 5939 5939 5940 5942 5942 5942 5943 5945 5945 5946 5946 5945 5945 5946 5946 5947 5948 5948
5922 5925 5925 5924 5927 5929 5931 5935 5937 5935 5934 5934 5933 5929 5932 5924 5929 5925 5927 5929 5931 5934 5937 5939 5939 5933 5939 5938 5938 5939 5941 5940 5940 5941 5942 5942 5942 5942 5943 5944 5945 5945 5945 5946
5922 5924 5927 5925 5926 5928 5931 5934 5935 5933 5932 5932 5932 5930 5929 5928 5928 5935 5935 5932 5930 5931 5932 5935 5934 5927 5935 5937 5935 5936 5937 5938 5939 5939 5938 5939 5939 5939 5939 5940 5943 5944 5944 5944
5921 5923 5924 5925 5925 5927 5927 5927 5928 5928 5930 5930 5929 5929 5928 5929 5932 5934 5935 5932 5932 5934 5931 5936 5932 5930 5932 5934 5935 5934 5934 5936 5937 5937 5937 5937 5937 5937 5937 5938 5939 5941 5941 5943
5918 5921 5921 5923 5926 5926 5926 5927 5926 5926 5926 5927 5927 5926 5929 5929 5930 5932 5932 5932 5933 5929 5931 5933 5930 5931 5934 5934 5936 5936 5935 5935 5936 5935 5934 5934 5935 5936 5937 5937 5939 5939 5939 5939
5915 5915 5916 5920 5921 5923 5924 5925 5926 5923 5923 5925 5926 5926 5926 5927 5928 5929 5929 5930 5931 5932 5932 5930 5929 5933 5933 5934 5932 5932 5933 5933 5932 5932 5931 5928 5929 5929 5930 5933 5935 5936 5939 5940
5911 5911 5914 5914 5918 5918 5920 5921 5922 5922 5921 5922 5924 5925 5926 5929 5931 5931 5930 5928 5925 5924 5924 5925 5927 5928 5929 5927 5925 5926 5927 5928 5928 5927 5928 5927 5928 5929 5928 5928 5929 5930 5933 5933
5908 5908 5911 5911 5914 5916 5918 5919 5917 5919 5919 5919 5921 5923 5924 5926 5926 5925 5922 5922 5922 5920 5917 5918 5920 5922 5919 5917 5918 5919 5924 5924 5925 5922 5923 5923 5922 5922 5924 5924 5925 5925 5926 5921
5906 5908 5910 5910 5914 5914 5915 5913 5913 5916 5918 5917 5918 5920 5922 5919 5919 5920 5919 5916 5915 5914 5913 5911 5915 5915 5910 5910 5906 5899 5898 5911 5909 5915 5902 5912 5919 5917 5918 5918 5918 5918 5919 5919
5902 5903 5906 5910 5912 5913 5913 5911 5909 5910 5912 5914 5915 5915 5916 5915 5913 5911 5910 5910 5910 5908 5909 5908 5907 5907 5905 5903 5905 5902 5898 5899 5899 5907 5905 5904 5909 5909 5911 5908 5907 5908 5909 5913
5899 5900 5902 5906 5908 5910 5911 5911 5908 5906 5907 5907 5909 5909 5909 5908 5908 5905 5903 5903 5903 5904 5901 5901 5901 5902 5898 5894 5895 5900 5899 5900 5900 5898 5896 5899 5901 5902 5900 5898 5895 5900 5902 5901
5895 5897 5900 5901 5903 5905 5907 5906 5907 5906 5905 5905 5904 5902 5902 5901 5900 5899 5899 5897 5897 5897 5897 5895 5893 5891 5894 5894 5891 5888 5892 5893 5893 5892 5892 5892 5891 5890 5888 5889 5889 5891 5892 5891
5892 5894 5896 5896 5898 5899 5902 5905 5904 5903 5905 5901 5900 5898 5895 5895 5894 5893 5892 5893 5892 5889 5889 5889 5889 5888 5886 5885 5885 5884 5882 5880 5879 5876 5877 5878 5878 5878 5877 5878 5879 5882 5883 5883
5889 5890 5892 5895 5896 5898 5900 5901 5901 5901 5899 5898 5897 5896 5894 5892 5892 5890 5887 5886 5885 5884 5880 5879 5880 5879 5879 5877 5875 5874 5873 5871 5868 5866 5865 5865 5865 5865 5865 5866 5866 5869 5870 5873
5887 5888 5890 5892 5893 5895 5896 5897 5897 5897 5896 5896 5894 5892 5889 5886 5885 5882 5880 5877 5876 5873 5871 5869 5869 5868 5868 5869 5867 5865 5863 5861 5860 5858 5855 5853 5853 5854 5855 5857 5860 5859 5859 5861
5884 5885 5887 5889 5890 5890 5892 5893 5894 5894 5893 5892 5891 5889 5886 5883 5880 5876 5874 5874 5871 5869 5867 5865 5864 5864 5862 5861 5859 5857 5856 5853 5851 5849 5846 5846 5847 5845 5846 5849 5851 5850 5848 5849
5882 5882 5883 5883 5885 5887 5887 5888 5888 5888 5887 5886 5885 5884 5882 5880 5876 5872 5870 5869 5866 5865 5865 5862 5859 5860 5859 5857 5855 5851 5848 5846 5843 5840 5839 5838 5838 5838 5839 5840 5840 5839 5838 5836
5876 5878 5879 5880 5880 5882 5883 5883 5882 5882 5882 5881 5879 5879 5877 5875 5873 5871 5868 5865 5864 5862 5861 5858 5857 5856 5856 5854 5850 5846 5842 5838 5837 5836 5834 5833 5831 5830 5829 5828 5828 5828 5830 5825